星链-31545 (STARLINK-31545 )

导读 | 豆包AI

STARLINK-31545是美国SpaceX星链星座的一颗卫星,于2024年4月5日发射入轨,属于星链网络扩容的一部分。星链项目旨在构建全球卫星互联网星座,为全球偏远地区、海洋等网络覆盖薄弱区域提供高速宽带服务,该卫星的入轨进一步扩大了星链星座的服务覆盖范围与网络容量。

基本信息
目录编号:
59400
目录名称:
STARLINK-31545
国际标识:
2024-064C
轨道中心:
EARTH
卫星名称:
星链-31545
卫星全名:
星链-31545 (STARLINK-31545 )
卫星状态:
在轨 (已飞行756 天)
发射日期:
2024-04-05 UTC
国别 :
美国 (US)
星等 :
--
轨道信息
数据来源 国际轨道数据
星历时间: 2026-04-30T18:40:50+0800
13小时前
查看轨道信息
半长轴: 6861.182km
偏心率: 0.0001048
轨道倾角: 43.002°
近地点辐角 260.076°
升交点赤经 123.668°
平近点角 99.997°
近地点: 482.325km
远地点: 483.765km
周期: 94.267分钟
每日圈数: 15.275814
详细信息
固有亮度:
5
最大亮度:
0.3
卫星平台:
Starlink v2.0 mini
覆盖范围:
全球
运营商:
太空探索技术公司
运营商所在国:
美国
制造商(研发单位):
太空探索技术公司
制造商所在国:
美国
使用方式:
暂无
卫星简介
星链(Starlink)计划是由太空探索技术公司(SpaceX)提出的一个巨型低轨卫星互联网星座项目,计划在2019年至2024年间在太空搭建由约1.2万颗卫星组成的“星链”网络,其中1584颗将部署在地球上空550千米处的近地轨道,并从2020年开始工作。该卫星仍在工作。
2D轨道图
3D轨道图
轨道高度分析图
轨道倾角分析图
轨道综合分析图
查看轨道综合分析图